Погода в Казлуке

Россия / Республика Коми     62°06′16″N   49°20′05″E
темп.,
°C
ветер,
м/с
пор.,
м/с
влажн.,
%
обл.,
%
осадки,
мм/ч
давл.,
гПа
погр.,
м
6 марта, сб
сб600:00−17зсз249889 0.1 1005103
03:00−18зсз259888 0.1 1007179
06:00−19зсз259895 0.1 1007168
09:00−18зсз249490 0.1 1008313
12:00−16з248797 0.1 1008690
15:00−15з358799 0.1 1008723
18:00−18зюз2296100 0.1 100822
21:00−20юз2298100 0.1 100838
7 марта, вс
вс700:00−22юз229984 0.0 100720
03:00−23ююз1210059 0.0 100720
06:00−23ю1210088 0.0 100520
09:00−18ююв139382 0.0 1005204
12:00−13юв238694 0.0 1004486
15:00−11вюв248997 0.1 1003615
18:00−15в2596100 0.1 100394
21:00−18в239995 0.1 100367
8 марта, пн
пн800:00−19всв259995 0.1 1002128
03:00−19всв389898 0.1 1002224
06:00−21всв3998100 0.1 1002266
09:00−19св3796100 0.1 1002299
12:00−15св4790100 0.0 1002505
15:00−15св4888100 0.1 1003697
18:00−18ссв3994100 0.0 1005397
21:00−21ссв389798 0.1 1006265
9 марта, вт
вт900:00−25с389776 0.0 1008210
03:00−29с279752 0.0 1010154
06:00−31с25976 0.0 1011105
09:00−28с259415 0.0 1013307
12:00−23с359185 0.0 1014474
15:00−21с358993 0.0 1015592
18:00−26ссз229586 0.0 101621
21:00−28ссз229742 0.0 101820
10 марта, ср
ср1000:00−30зсз22980 0.0 101819
03:00−30з23970 0.0 101937
06:00−28зюз369583 0.0 1018167
09:00−23з379480 0.0 1017322
12:00−18зюз499399 0.0 1015387
15:00−15з5109199 0.0 1014504
18:00−16з41293100 0.0 1013444
21:00−17з4129393 0.0 1014378